Other Surface Observations
Issued by NWS Tucson, AZ

Home | Current Version | Previous Version | Text Only | Print | Product List | Glossary On
Versions: 1 2 3 4 5 6 7 8 9 10 11 12 13 14 15 16 17 18 19 20 21 22 23 24 25 26 27 28 29 30 31 32 33 34 35 36 37 38 39 40 41 42 43 44 45 46 47 48 49 50
000
SXUS55 KTWC 250315
OSOTWC

WEATHER ROUNDUP FOR SOUTHEAST ARIZONA
NATIONAL WEATHER SERVICE TUCSON AZ
815 PM MST SUN MAY 24 2015

AZZ504>506-514-250415-
LOCATION       SKY/WX    TMP DP  RH WIND       PRES   REMARKS
TUCSON         CLEAR     75  31  19 W7        29.90R
DAVIS-MONTHAN  CLEAR     74  34  22 NW6       29.88R
CHILDRENS PARK N/A       78  31  18 NW7               PIMA CO DEQ
ALVERNON/22ND  N/A      N/A N/A N/A N/A               PIMA CO DEQ
CHERRY/GLENN   N/A      N/A N/A N/A N/A               PIMA CO DEQ
TANGERINE      N/A       78 N/A N/A W7                PIMA CO DEQ
CONTL RANCH    N/A       80  34  19 W9                PIMA CO DEQ
GRANT/1ST      N/A       79  32  18 NW7               PIMA CO DEQ
CRAYCROFT/22ND N/A      N/A N/A N/A N/A               PIMA CO DEQ
GOLFLINKS/KOLB N/A      N/A N/A N/A N/A               PIMA CO DEQ
AJO/12TH       N/A       79  29  16 W8                PIMA CO DEQ
SAGUARO EAST   N/A      N/A N/A N/A N/A               PIMA CO DEQ
FAIRGROUNDS    N/A       75 N/A N/A S10               PIMA CO DEQ
SAGUARO        N/A       75  29  18 W8G16             *SABINO CYN
SAN CARLOS     N/A       74  28  18 W9G16             *SAN CARLOS
GREEN VALLEY   N/A       77  29  17 W3                PIMA CO DEQ
HORSE CAMP CYN N/A       68  30  24 W16G25            *ARAVAIPA CYN
RINCON MTNS    N/A       46  28  49 W6G13             *NR MANNING CAMP
$$

AZZ509>511-250415-
LOCATION       SKY/WX    TMP DP  RH WIND       PRES   REMARKS
SAFFORD        PTCLDY    73  31  21 NW16      29.87R
STRAY HORSE    N/A       50  25  37 W10G16            *
TRAIL CABIN    N/A       58  25  28 NW6G16            *N OF GRANVILLE
BLACK HILLS    N/A       71  30  22 NW12G23           *N OF FT THOMAS
DRY LAKE       N/A       50  25  38 NW4G12            *NATANES MTNS
NOON CREEK     N/A       63  36  37 SW11G27           *PINALENO MTNS
COLUMBINE      N/A       41  17  37 NE2G14            *PINALENO MTNS
GUTHRIE        N/A       61  25  25 W12G22            *SW OF GUTHRIE
$$

AZZ502-503-513-250415-
LOCATION       SKY/WX    TMP DP  RH WIND       PRES   REMARKS
NOGALES        CLEAR     65  29  25 CALM      29.96R
SELLS          N/A       75  39  27 W11G17            *
SASABE         N/A       73  28  19 W7G15             *ALTAR VLY
HOPKINS        N/A       54  26  33 W6G21             *SANTA RITA MTNS
CARR CYN       N/A       50  46  86 SW4               *W OF HEREFORD
$$

AZZ507-508-512-250415-
LOCATION       SKY/WX    TMP DP  RH WIND       PRES   REMARKS
SIERRA VISTA   PTCLDY    58  45  60 S10       30.01R
DOUGLAS        MOCLDY    65  30  27 NW17      29.96R
EMPIRE MTNS    N/A       59  39  48 W3G11             *LAS CIENEGAS NCA
MULESHOE RANCH N/A       69  29  22 W9G20             *PRESERVE
HEADQUARTERS   N/A       60  27  28 NW4G14            *CHIRICAHUA MTNS
$$

.............................NOTES.............................
THIS IS AN AUTOMATED COLLECTIVE WITH MINIMAL QUALITY CONTROL.
PIMA CO DEQ SITES HAVE NONSTANDARD WIND SENSOR HEIGHTS.
PIMA CO DEQ SITES DO NOT REPORT WIND GUSTS.
* INDICATES WIND SENSORS LOCATED AT 20 FEET INSTEAD OF 33 FEET.
..............................KEY..............................
SKY/WX - SKY CONDITION/WEATHER
TMP    - TEMPERATURE IN FAHRENHEIT
DP     - DEWPOINT IN FAHRENHEIT
RH     - RELATIVE HUMIDITY IN PERCENT
WIND   - DIRECTION AND SPEED IN MILES PER HOUR (MPH)
VRB    - VARIABLE WIND DIRECTION
PRES   - MEAN SEA LEVEL PRESSURE IN INCHES OF MERCURY
         F - FALLING PRESSURE   R - RISING PRESSURE
         S - STEADY PRESSURE
VSB    - VISIBILITY IN MILES
HX     - HEAT INDEX IN FAHRENHEIT
WCI    - WIND CHILL INDEX IN FAHRENHEIT
N/A    - NOT AVAILABLE
AFB    - AIR FORCE BASE
         DAVIS-MONTHAN IS DAVIS-MONTHAN AIR FORCE BASE
CYN    - CANYON
MTNS   - MOUNTAINS
NCA    - NATIONAL CONSERVATION AREA
NR     - NEAR
VLY    - VALLEY
CONTL  - CONTINENTAL
PIMA CO DEQ - PIMA COUNTY DEPT OF ENVIRONMENTAL QUALITY



USA.gov is the U.S. government's official web portal to all federal, state and local government web resources and services.